Location: Unspecified
(0.0000°N, 0.0000°E)
Time: 01:19:48
(UTC+00:00)

Vanguard 2 - All Passes

Search period start: 30 April 2017 00:00
Search period end: 10 May 2017 00:00
Orbit: 553 x 2941 km, 32.9° (Epoch: 28 April)

Date Brightness Start Highest point End Pass type
(mag) Time Alt. Az. Time Alt. Az. Time Alt. Az.
30 Apr - 00:34:01 10° WNW 00:44:19 43° SW 00:50:41 10° SSE night (unlit)
30 Apr - 09:23:29 10° S 09:28:00 22° SE 09:34:16 10° E daylight
30 Apr - 11:29:27 10° WSW 11:36:49 81° NW 11:49:37 10° NE daylight
30 Apr - 13:39:46 10° W 13:48:57 31° NNW 14:02:03 10° NNE daylight
30 Apr - 15:55:51 10° NW 16:04:52 17° N 16:15:01 10° NNE daylight
30 Apr - 18:13:01 10° NNW 18:23:28 18° N 18:33:18 10° NE visible
30 Apr - 20:25:44 10° NNW 20:40:01 32° NNE 20:50:33 10° E visible
30 Apr - 22:38:15 10° NW 22:52:53 77° NE 23:01:32 10° ESE visible
01 May - 00:53:41 10° W 01:02:22 29° SW 01:08:09 10° SSE night (unlit)
01 May - 09:40:45 10° SSW 09:46:01 35° SE 09:54:07 10° ENE daylight
01 May - 11:47:53 10° WSW 11:55:21 58° NNW 12:07:59 10° NE daylight
01 May - 13:59:32 10° WNW 14:08:17 24° NNW 14:20:03 10° NNE daylight
01 May - 16:16:35 10° NW 16:25:06 16° N 16:34:20 10° NNE daylight
01 May - 18:31:43 10° NNW 18:43:33 21° NNE 18:54:16 10° ENE visible
01 May - 20:43:48 10° NW 20:59:12 41° NNE 21:09:59 10° E visible
01 May - 22:56:51 10° WNW 23:11:16 80° SW 23:19:45 10° SE visible
02 May - 01:14:06 10° W 01:20:27 19° SW 01:25:12 10° S night (unlit)
02 May - 09:58:24 10° SW 10:04:02 55° SE 10:13:21 10° ENE daylight
02 May - 12:06:38 10° W 12:14:06 42° NNW 12:26:07 10° NE daylight
02 May - 14:19:46 10° NW 14:27:52 20° NNW 14:38:07 10° NNE daylight
02 May - 16:36:48 10° NNW 16:45:25 16° N 16:54:32 10° NE daylight
02 May - 18:50:02 10° NNW 19:03:22 25° NNE 19:14:57 10° ENE visible
02 May - 21:01:55 10° NW 21:18:09 53° NNE 21:29:01 10° ESE visible
02 May - 23:15:48 10° WNW 23:29:29 59° SW 23:37:43 10° SE visible
03 May - 01:36:06 10° WSW 01:38:43 11° SW 01:41:02 10° SSW night (unlit)
03 May - 08:12:14 10° SSE 08:14:02 12° SE 08:16:02 10° ESE daylight
03 May - 10:16:22 10° SW 10:22:11 85° SE 10:32:08 10° NE daylight
03 May - 12:25:45 10° W 12:33:04 31° NNW 12:44:05 10° NNE daylight
03 May - 14:40:23 10° NW 14:47:42 16° N 14:56:28 10° NNE daylight
03 May - 16:56:14 10° NNW 17:05:43 17° N 17:15:32 10° NE daylight
03 May - 19:08:09 10° NNW 19:22:54 31° NNE 19:35:11 10° E visible
03 May - 21:20:11 10° NW 21:36:54 69° NNE 21:47:43 10° ESE visible
03 May - 23:35:10 10° WNW 23:47:37 42° SW 23:55:28 10° SSE visible
04 May - 08:28:26 10° S 08:32:07 21° SE 08:36:56 10° E daylight
04 May - 10:34:38 10° WSW 10:40:33 64° NNW 10:50:34 10° NE daylight
04 May - 12:45:20 10° WNW 12:52:15 23° NNW 13:01:55 10° NNE daylight
04 May - 15:01:07 10° NNW 15:07:45 14° N 15:15:21 10° NNE daylight
04 May - 17:14:58 10° NNW 17:25:51 19° NNE 17:36:51 10° NE daylight
04 May - 19:26:11 10° NW 19:42:12 39° NNE 19:54:57 10° E visible
04 May - 21:38:38 10° NW 21:55:27 88° NE 22:06:06 10° SE visible
04 May - 23:55:04 10° W 00:05:45 30° SW 00:12:56 10° SSE visible
05 May - 08:45:45 10° SSW 08:50:07 36° SE 08:56:30 10° ENE daylight
05 May - 10:53:14 10° W 10:59:08 42° NNW 11:08:42 10° NE daylight
05 May - 13:05:27 10° NW 13:11:39 18° NNW 13:19:40 10° NNE daylight
05 May - 15:21:25 10° NNW 15:27:56 14° N 15:35:13 10° NNE daylight
05 May - 17:33:17 10° NNW 17:45:45 23° NNE 17:58:00 10° ENE daylight
05 May - 19:44:15 10° NW 20:01:15 49° NNE 20:14:16 10° ESE visible
05 May - 21:57:23 10° WNW 22:13:50 73° SW 22:24:15 10° SE visible
06 May - 00:15:42 10° W 00:24:00 20° SW 00:30:05 10° S night (unlit)
06 May - 09:03:30 10° SW 09:08:11 64° SE 09:15:27 10° ENE daylight
06 May - 11:12:13 10° W 11:17:57 29° NNW 11:26:35 10° NNE daylight
06 May - 13:26:07 10° NW 13:31:15 14° N 13:37:26 10° NNE daylight
06 May - 15:40:51 10° NNW 15:48:09 14° N 15:56:13 10° NE daylight
06 May - 17:51:21 10° NNW 18:05:21 28° NNE 18:18:43 10° ENE visible
06 May - 20:02:25 10° NW 20:20:06 62° NNE 20:33:12 10° ESE visible
06 May - 22:16:29 10° WNW 22:32:06 55° SW 22:42:11 10° SE visible
07 May - 00:37:29 10° WSW 00:42:26 14° SW 00:46:33 10° S night (unlit)
07 May - 07:16:52 10° SSE 07:18:21 12° SE 07:19:57 10° ESE daylight
07 May - 09:21:37 10° WSW 09:26:24 75° NNW 09:33:58 10° NE daylight
07 May - 11:31:43 10° WNW 11:36:57 21° NNW 11:44:12 10° NNE daylight
07 May - 13:47:16 10° NNW 13:51:05 12° N 13:55:22 10° NNE daylight
07 May - 15:59:30 10° NNW 16:08:15 16° NNE 16:17:53 10° NE daylight
07 May - 18:09:20 10° NNW 18:24:41 36° NNE 18:38:54 10° E visible
07 May - 20:20:44 10° NW 20:38:46 78° NE 20:51:49 10° ESE visible
07 May - 22:36:02 10° WNW 22:50:20 41° SW 22:59:55 10° SSE visible
08 May - 07:33:13 10° SSW 07:36:30 22° SE 07:40:26 10° E daylight
08 May - 09:40:05 10° WSW 09:44:49 44° NNW 09:52:07 10° NE daylight
08 May - 11:51:53 10° NW 11:56:10 15° NNW 12:01:31 10° NNE daylight
08 May - 14:08:14 10° N 14:11:03 11° N 14:14:06 10° NNE daylight
08 May - 16:17:40 10° NNW 16:28:08 20° NNE 16:39:35 10° ENE daylight
08 May - 18:27:18 10° NW 18:43:47 45° NNE 18:58:35 10° E visible
08 May - 20:39:15 10° NW 20:57:17 84° SW 21:10:09 10° SE visible
08 May - 22:56:08 10° W 23:08:39 30° SW 23:17:27 10° SSE visible
09 May - 07:50:41 10° SW 07:54:34 42° SE 07:59:40 10° ENE daylight
09 May - 09:58:59 10° W 10:03:28 28° NNW 10:09:56 10° NNE daylight
09 May - 12:13:18 10° NNW 12:15:33 11° N 12:18:02 10° N daylight
09 May - 14:27:37 10° N 14:31:06 11° N 14:34:55 10° NNE daylight
09 May - 16:35:37 10° NNW 16:47:44 25° NNE 17:00:53 10° ENE daylight
09 May - 18:45:21 10° NW 19:02:40 56° NNE 19:17:49 10° ESE visible
09 May - 20:58:06 10° WNW 21:15:41 67° SW 21:28:15 10° SE visible
09 May - 23:16:57 10° W 23:27:07 22° SW 23:34:43 10° S visible
